2022-096C (53372 NORAD) Tracking and Keplerian Element Data

This shows tracking and keplerian element data for the satellite.

Feedback or suggestion? Click here.




ElementValue
Catalog53372
Name2022-096C
Epoch Orbit1581
Epoch Day325.06422372
Epoch Year2022
RAAN225.7697
Inclination97.4279
Eccentricity0.0002275
Argument of Perigee115.014
Mean Anonmoly358.8951
Mean Motion15.25885143
Decay Rate6.566E-05
L11 53372U 22096C 22325.06422372 .00006566 00000+0 25905-3 0 9995
L22 53372 97.4279 225.7697 0002275 115.0140 358.8951 15.25885143 15812



Live tracking and technical data element details for 2022-096C (NORAD 53372). 2022-096C can be tracked NOW for your location showing map with azimuth and elevation plus other details from your city location.







IsCatalogInMostPopularTable: catalog: 53372, numindb: 4
Update: records affected: 1



GetName: 53372 2022-096C

Hit Count: updated at: Thu, 08 Dec 2022 09:33:39 GMT